Time,TemperatureF,DewpointF,PressureIn,WindDirection,WindDirectionDegrees,WindSpeedMPH,WindSpeedGustMPH,Humidity,HourlyPrecipIn,Conditions,Clouds,dailyrainin,SolarRadiationWatts/m^2,SoftwareType,DateUTC
2013-01-09 00:02:00,29.0,13.0,-100.00,NE,48,5.0,7.0,50,0.00,,,0.00,0.000000,,2013-01-09 07:02:00,
2013-01-09 00:12:00,29.0,13.0,-100.00,NE,48,5.0,7.0,50,0.00,,,0.00,0.000000,,2013-01-09 07:12:00,
2013-01-09 00:22:00,29.0,13.0,-100.00,NE,48,5.0,7.0,50,0.00,,,0.00,0.000000,,2013-01-09 07:22:00,
2013-01-09 00:32:00,29.0,13.0,-100.00,NE,48,5.0,7.0,50,0.00,,,0.00,0.000000,,2013-01-09 07:32:00,
2013-01-09 00:42:00,29.0,13.0,-100.00,NE,48,5.0,7.0,50,0.00,,,0.00,0.000000,,2013-01-09 07:42:00,
2013-01-09 01:02:00,25.0,11.0,-100.00,NNE,24,3.0,12.0,55,0.00,,,0.00,0.000000,,2013-01-09 08:02:00,
2013-01-09 01:12:00,25.0,11.0,-100.00,NNE,24,3.0,12.0,55,0.00,,,0.00,0.000000,,2013-01-09 08:12:00,
2013-01-09 01:22:00,25.0,11.0,-100.00,NNE,24,3.0,12.0,55,0.00,,,0.00,0.000000,,2013-01-09 08:22:00,
2013-01-09 01:32:00,25.0,11.0,-100.00,NNE,24,3.0,12.0,55,0.00,,,0.00,0.000000,,2013-01-09 08:32:00,
2013-01-09 01:42:00,25.0,11.0,-100.00,NNE,24,3.0,12.0,55,0.00,,,0.00,0.000000,,2013-01-09 08:42:00,
2013-01-09 02:02:00,25.0,11.0,-100.00,NE,51,5.0,6.0,54,0.00,,,0.00,0.000000,,2013-01-09 09:02:00,
2013-01-09 02:12:00,25.0,11.0,-100.00,NE,51,5.0,6.0,54,0.00,,,0.00,0.000000,,2013-01-09 09:12:00,
2013-01-09 02:22:00,25.0,11.0,-100.00,NE,51,5.0,6.0,54,0.00,,,0.00,0.000000,,2013-01-09 09:22:00,
2013-01-09 02:32:00,25.0,11.0,-100.00,NE,51,5.0,6.0,54,0.00,,,0.00,0.000000,,2013-01-09 09:32:00,
2013-01-09 02:42:00,25.0,11.0,-100.00,NE,51,5.0,6.0,54,0.00,,,0.00,0.000000,,2013-01-09 09:42:00,
2013-01-09 03:02:00,25.0,11.0,-100.00,ENE,59,4.0,9.0,54,0.00,,,0.00,0.000000,,2013-01-09 10:02:00,
2013-01-09 03:11:00,25.0,11.0,-100.00,ENE,59,4.0,9.0,54,0.00,,,0.00,0.000000,,2013-01-09 10:11:00,
2013-01-09 03:22:00,25.0,11.0,-100.00,ENE,59,4.0,9.0,54,0.00,,,0.00,0.000000,,2013-01-09 10:22:00,
2013-01-09 03:32:00,25.0,11.0,-100.00,ENE,59,4.0,9.0,54,0.00,,,0.00,0.000000,,2013-01-09 10:32:00,
2013-01-09 03:42:00,25.0,11.0,-100.00,ENE,59,4.0,9.0,54,0.00,,,0.00,0.000000,,2013-01-09 10:42:00,
2013-01-09 04:02:00,24.0,10.0,-100.00,ENE,73,3.0,7.0,54,0.00,,,0.00,0.000000,,2013-01-09 11:02:00,
2013-01-09 04:12:00,24.0,10.0,-100.00,ENE,73,3.0,7.0,54,0.00,,,0.00,0.000000,,2013-01-09 11:12:00,
2013-01-09 04:22:00,24.0,10.0,-100.00,ENE,73,3.0,7.0,54,0.00,,,0.00,0.000000,,2013-01-09 11:22:00,
2013-01-09 04:32:00,24.0,10.0,-100.00,ENE,73,3.0,7.0,54,0.00,,,0.00,0.000000,,2013-01-09 11:32:00,
2013-01-09 04:42:00,24.0,10.0,-100.00,ENE,73,3.0,7.0,54,0.00,,,0.00,0.000000,,2013-01-09 11:42:00,
2013-01-09 05:03:00,22.0,10.0,-100.00,ENE,78,0.0,4.0,58,0.00,,,0.00,0.000000,,2013-01-09 12:03:00,
2013-01-09 05:12:00,22.0,10.0,-100.00,ENE,78,0.0,4.0,58,0.00,,,0.00,0.000000,,2013-01-09 12:12:00,
2013-01-09 05:22:00,22.0,10.0,-100.00,ENE,78,0.0,4.0,58,0.00,,,0.00,0.000000,,2013-01-09 12:22:00,
2013-01-09 05:32:00,22.0,10.0,-100.00,ENE,78,0.0,4.0,58,0.00,,,0.00,0.000000,,2013-01-09 12:32:00,
2013-01-09 05:42:00,22.0,10.0,-100.00,ENE,78,0.0,4.0,58,0.00,,,0.00,0.000000,,2013-01-09 12:42:00,
2013-01-09 06:02:00,22.0,10.0,-100.00,East,96,3.0,5.0,59,0.00,,,0.00,0.000000,,2013-01-09 13:02:00,
2013-01-09 06:12:00,22.0,10.0,-100.00,East,96,3.0,5.0,59,0.00,,,0.00,0.000000,,2013-01-09 13:12:00,
2013-01-09 06:22:00,22.0,10.0,-100.00,East,96,3.0,5.0,59,0.00,,,0.00,0.000000,,2013-01-09 13:22:00,
2013-01-09 06:32:00,22.0,10.0,-100.00,East,96,3.0,5.0,59,0.00,,,0.00,0.000000,,2013-01-09 13:32:00,
2013-01-09 06:42:00,22.0,10.0,-100.00,East,96,3.0,5.0,59,0.00,,,0.00,0.000000,,2013-01-09 13:42:00,
2013-01-09 07:02:00,20.0,9.0,-100.00,East,94,4.0,5.0,63,0.00,,,0.00,0.000000,,2013-01-09 14:02:00,
2013-01-09 07:12:00,20.0,9.0,-100.00,East,94,4.0,5.0,63,0.00,,,0.00,0.000000,,2013-01-09 14:12:00,
2013-01-09 07:22:00,20.0,9.0,-100.00,East,94,4.0,5.0,63,0.00,,,0.00,0.000000,,2013-01-09 14:22:00,
2013-01-09 07:32:00,20.0,9.0,-100.00,East,94,4.0,5.0,63,0.00,,,0.00,0.000000,,2013-01-09 14:32:00,
2013-01-09 07:42:00,20.0,9.0,-100.00,East,94,4.0,5.0,63,0.00,,,0.00,0.000000,,2013-01-09 14:42:00,
2013-01-09 08:03:00,22.0,10.0,-100.00,ESE,111,2.0,6.0,59,0.00,,,0.00,0.000000,,2013-01-09 15:03:00,
2013-01-09 08:12:00,22.0,10.0,-100.00,ESE,111,2.0,6.0,59,0.00,,,0.00,0.000000,,2013-01-09 15:12:00,
2013-01-09 08:22:00,22.0,10.0,-100.00,ESE,111,2.0,6.0,59,0.00,,,0.00,0.000000,,2013-01-09 15:22:00,
2013-01-09 08:33:00,22.0,10.0,-100.00,ESE,111,2.0,6.0,59,0.00,,,0.00,0.000000,,2013-01-09 15:33:00,
2013-01-09 08:42:00,22.0,10.0,-100.00,ESE,111,2.0,6.0,59,0.00,,,0.00,0.000000,,2013-01-09 15:42:00,
2013-01-09 09:12:00,30.0,11.0,-100.00,ESE,110,2.0,5.0,44,0.00,,,0.00,7.000000,,2013-01-09 16:12:00,
2013-01-09 09:22:00,30.0,11.0,-100.00,ESE,110,2.0,5.0,44,0.00,,,0.00,7.000000,,2013-01-09 16:22:00,
2013-01-09 09:33:00,30.0,11.0,-100.00,ESE,110,2.0,5.0,44,0.00,,,0.00,7.000000,,2013-01-09 16:33:00,
2013-01-09 09:42:00,30.0,11.0,-100.00,ESE,110,2.0,5.0,44,0.00,,,0.00,7.000000,,2013-01-09 16:42:00,
2013-01-09 10:02:00,34.0,13.0,-100.00,ENE,63,4.0,6.0,42,0.00,,,0.00,158.000000,,2013-01-09 17:02:00,
2013-01-09 10:32:00,34.0,13.0,-100.00,ENE,63,4.0,6.0,42,0.00,,,0.00,158.000000,,2013-01-09 17:32:00,
2013-01-09 10:42:00,34.0,13.0,-100.00,ENE,63,4.0,6.0,42,0.00,,,0.00,158.000000,,2013-01-09 17:42:00,
2013-01-09 11:03:00,42.0,14.0,-100.00,NE,54,2.0,7.0,32,0.00,,,0.00,377.000000,,2013-01-09 18:03:00,
2013-01-09 12:02:00,38.0,14.0,-100.00,WNW,286,6.0,10.0,37,-99.99,,,0.00,564.000000,,2013-01-09 19:02:00,
2013-01-09 12:12:00,38.0,14.0,-100.00,WNW,286,6.0,10.0,37,-99.99,,,0.00,564.000000,,2013-01-09 19:12:00,
2013-01-09 12:22:00,38.0,14.0,-100.00,WNW,286,6.0,10.0,37,-99.99,,,0.00,564.000000,,2013-01-09 19:22:00,
2013-01-09 12:33:00,38.0,14.0,-100.00,WNW,286,6.0,10.0,37,-99.99,,,0.00,564.000000,,2013-01-09 19:33:00,
2013-01-09 12:42:00,38.0,14.0,-100.00,WNW,286,6.0,10.0,37,-99.99,,,0.00,564.000000,,2013-01-09 19:42:00,
2013-01-09 13:02:00,42.0,16.0,-100.00,WNW,294,2.0,10.0,34,0.00,,,0.00,687.000000,,2013-01-09 20:02:00,
2013-01-09 13:12:00,42.0,16.0,-100.00,WNW,294,2.0,10.0,34,0.00,,,0.00,687.000000,,2013-01-09 20:12:00,
2013-01-09 13:22:00,42.0,16.0,-100.00,WNW,294,2.0,10.0,34,0.00,,,0.00,687.000000,,2013-01-09 20:22:00,
2013-01-09 13:32:00,42.0,16.0,-100.00,WNW,294,2.0,10.0,34,0.00,,,0.00,687.000000,,2013-01-09 20:32:00,
2013-01-09 13:42:00,42.0,16.0,-100.00,WNW,294,2.0,10.0,34,0.00,,,0.00,687.000000,,2013-01-09 20:42:00,
2013-01-09 14:03:00,46.0,18.0,-100.00,SSE,147,3.0,6.0,32,0.00,,,0.00,734.000000,,2013-01-09 21:03:00,
2013-01-09 14:42:00,46.0,18.0,-100.00,SSE,147,3.0,6.0,32,0.00,,,0.00,734.000000,,2013-01-09 21:42:00,
2013-01-09 15:12:00,48.0,16.0,-100.00,SW,223,1.0,6.0,28,0.00,,,0.00,704.000000,,2013-01-09 22:12:00,
2013-01-09 15:42:00,48.0,16.0,-100.00,SW,223,1.0,6.0,28,0.00,,,0.00,704.000000,,2013-01-09 22:42:00,
2013-01-09 16:02:00,47.0,18.0,-100.00,NNE,12,3.0,6.0,31,0.00,,,0.00,595.000000,,2013-01-09 23:02:00,
2013-01-09 16:12:00,47.0,18.0,-100.00,NNE,12,3.0,6.0,31,0.00,,,0.00,595.000000,,2013-01-09 23:12:00,
2013-01-09 16:22:00,47.0,18.0,-100.00,NNE,12,3.0,6.0,31,0.00,,,0.00,595.000000,,2013-01-09 23:22:00,
2013-01-09 16:32:00,47.0,18.0,-100.00,NNE,12,3.0,6.0,31,0.00,,,0.00,595.000000,,2013-01-09 23:32:00,
2013-01-09 16:42:00,47.0,18.0,-100.00,NNE,12,3.0,6.0,31,0.00,,,0.00,595.000000,,2013-01-09 23:42:00,
2013-01-09 17:03:00,43.0,18.0,-100.00,SW,228,1.0,5.0,36,0.00,,,0.00,421.000000,,2013-01-10 00:03:00,
2013-01-09 17:12:00,43.0,18.0,-100.00,SW,228,1.0,5.0,36,0.00,,,0.00,421.000000,,2013-01-10 00:12:00,
2013-01-09 17:22:00,43.0,18.0,-100.00,SW,228,1.0,5.0,36,0.00,,,0.00,421.000000,,2013-01-10 00:22:00,
2013-01-09 17:32:00,43.0,18.0,-100.00,SW,228,1.0,5.0,36,0.00,,,0.00,421.000000,,2013-01-10 00:32:00,
2013-01-09 17:42:00,43.0,18.0,-100.00,SW,228,1.0,5.0,36,0.00,,,0.00,421.000000,,2013-01-10 00:42:00,
2013-01-09 18:02:00,32.0,14.0,-100.00,SW,224,2.0,4.0,46,0.00,,,-99.99,17.000000,,2013-01-10 01:02:00,
2013-01-09 18:12:00,32.0,14.0,-100.00,SW,224,2.0,4.0,46,0.00,,,-99.99,17.000000,,2013-01-10 01:12:00,
2013-01-09 18:22:00,32.0,14.0,-100.00,SW,224,2.0,4.0,46,0.00,,,-99.99,17.000000,,2013-01-10 01:22:00,
2013-01-09 18:32:00,32.0,14.0,-100.00,SW,224,2.0,4.0,46,0.00,,,-99.99,17.000000,,2013-01-10 01:32:00,
2013-01-09 18:42:00,32.0,14.0,-100.00,SW,224,2.0,4.0,46,0.00,,,-99.99,17.000000,,2013-01-10 01:42:00,
2013-01-09 19:02:00,30.0,15.0,-100.00,NW,323,3.0,5.0,54,0.00,,,0.00,0.000000,,2013-01-10 02:02:00,
2013-01-09 19:12:00,30.0,15.0,-100.00,NW,323,3.0,5.0,54,0.00,,,0.00,0.000000,,2013-01-10 02:12:00,
2013-01-09 19:22:00,30.0,15.0,-100.00,NW,323,3.0,5.0,54,0.00,,,0.00,0.000000,,2013-01-10 02:22:00,
2013-01-09 19:32:00,30.0,15.0,-100.00,NW,323,3.0,5.0,54,0.00,,,0.00,0.000000,,2013-01-10 02:32:00,
2013-01-09 19:42:00,30.0,15.0,-100.00,NW,323,3.0,5.0,54,0.00,,,0.00,0.000000,,2013-01-10 02:42:00,
2013-01-09 20:02:00,30.0,16.0,-100.00,SSW,212,2.0,4.0,55,0.00,,,0.00,0.000000,,2013-01-10 03:02:00,
2013-01-09 20:12:00,30.0,16.0,-100.00,SSW,212,2.0,4.0,55,0.00,,,0.00,0.000000,,2013-01-10 03:12:00,
2013-01-09 20:22:00,30.0,16.0,-100.00,SSW,212,2.0,4.0,55,0.00,,,0.00,0.000000,,2013-01-10 03:22:00,
2013-01-09 20:32:00,30.0,16.0,-100.00,SSW,212,2.0,4.0,55,0.00,,,0.00,0.000000,,2013-01-10 03:32:00,
2013-01-09 20:42:00,30.0,16.0,-100.00,SSW,212,2.0,4.0,55,0.00,,,0.00,0.000000,,2013-01-10 03:42:00,
2013-01-09 21:02:00,29.0,15.0,-100.00,WSW,249,4.0,5.0,56,0.00,,,0.00,0.000000,,2013-01-10 04:02:00,
2013-01-09 21:12:00,29.0,15.0,-100.00,WSW,249,4.0,5.0,56,0.00,,,0.00,0.000000,,2013-01-10 04:12:00,
2013-01-09 21:22:00,29.0,15.0,-100.00,WSW,249,4.0,5.0,56,0.00,,,0.00,0.000000,,2013-01-10 04:22:00,
2013-01-09 21:32:00,29.0,15.0,-100.00,WSW,249,4.0,5.0,56,0.00,,,0.00,0.000000,,2013-01-10 04:32:00,
2013-01-09 21:42:00,29.0,15.0,-100.00,WSW,249,4.0,5.0,56,0.00,,,0.00,0.000000,,2013-01-10 04:42:00,
2013-01-09 22:03:00,29.0,15.0,-100.00,ENE,76,3.0,5.0,55,0.00,,,-99.99,0.000000,,2013-01-10 05:03:00,
2013-01-09 22:12:00,29.0,15.0,-100.00,ENE,76,3.0,5.0,55,0.00,,,-99.99,0.000000,,2013-01-10 05:12:00,
2013-01-09 22:22:00,29.0,15.0,-100.00,ENE,76,3.0,5.0,55,0.00,,,-99.99,0.000000,,2013-01-10 05:22:00,
2013-01-09 22:32:00,29.0,15.0,-100.00,ENE,76,3.0,5.0,55,0.00,,,-99.99,0.000000,,2013-01-10 05:32:00,
2013-01-09 22:42:00,29.0,15.0,-100.00,ENE,76,3.0,5.0,55,0.00,,,-99.99,0.000000,,2013-01-10 05:42:00,
2013-01-09 23:11:00,29.0,10.0,-100.00,East,96,3.0,6.0,45,0.00,,,0.00,0.000000,,2013-01-10 06:11:00,
2013-01-09 23:22:00,29.0,10.0,-100.00,East,96,3.0,6.0,45,0.00,,,0.00,0.000000,,2013-01-10 06:22:00,
2013-01-09 23:32:00,29.0,10.0,-100.00,East,96,3.0,6.0,45,0.00,,,0.00,0.000000,,2013-01-10 06:32:00,
2013-01-09 23:42:00,29.0,10.0,-100.00,East,96,3.0,6.0,45,0.00,,,0.00,0.000000,,2013-01-10 06:42:00,